When you browse on this site, cookies collect data to enhance your experience and personalize the content and advertising you see.
Visit our Privacy Policy to learn more. By continuing to use the site, you agree to this use of cookies and data.
  • In Latvia
  • List of Countries
  • For 7 days
  • Water Temperature
  • Satellite Maps
  • Weather Map
  • Weather Widgets
  • user-avatar
    Login

    Hourly Weather Sumgayit

    Today, 24 March, Sunday

    Time Temperature Precipitation Wind Pressure Humidity
    00:00 +7°C° 0 mm 5 mps 737 mmHg 87%
    01:00 +7°C° 0 mm 4 mps 737 mmHg 88%
    02:00 +7°C° 0 mm 4 mps 737 mmHg 89%
    03:00 +7°C° 0 mm 4 mps 736 mmHg 88%
    04:00 +7°C° 0 mm 3 mps 737 mmHg 88%
    05:00 +7°C° 0 mm 2 mps 737 mmHg 88%
    06:00 +8°C° 0 mm 1 mps 737 mmHg 87%
    07:00 +7°C° 0 mm 3 mps 737 mmHg 82%
    08:00 +7°C° 0 mm 4 mps 737 mmHg 76%
    09:00 +8°C° 0 mm 5 mps 737 mmHg 72%
    10:00 +9°C° 0 mm 6 mps 738 mmHg 70%
    11:00 +9°C° 0 mm 7 mps 738 mmHg 67%
    12:00 +10°C° 0 mm 8 mps 738 mmHg 65%
    13:00 +10°C° 0 mm 8 mps 738 mmHg 66%
    14:00 +8°C° 0 mm 9 mps 737 mmHg 66%
    15:00 +7°C° 0 mm 13 mps 737 mmHg 67%
    16:00 +5°C° 0 mm 12 mps 738 mmHg 68%
    17:00 +4°C° 0 mm 12 mps 738 mmHg 69%
    18:00 +4°C° 0 mm 11 mps 738 mmHg 70%
    19:00 +3°C° 0.1 mm 10 mps 738 mmHg 70%
    20:00 +3°C° 0.1 mm 10 mps 738 mmHg 71%
    21:00 +3°C° 0.1 mm 9 mps 739 mmHg 71%
    22:00 +3°C° 0.5 mm 9 mps 739 mmHg 72%
    23:00 +3°C° 0.5 mm 9 mps 739 mmHg 72%

    Tomorrow, 25 March, Monday

    Time Temperature Precipitation Wind Pressure Humidity
    00:00 +2°C° 0.5 mm 9 mps 739 mmHg 72%
    01:00 +2°C° 0 mm 9 mps 739 mmHg 70%
    02:00 +2°C° 0 mm 9 mps 739 mmHg 67%
    03:00 +2°C° 0 mm 8 mps 739 mmHg 65%
    04:00 +2°C° 0 mm 9 mps 739 mmHg 62%
    05:00 +2°C° 0 mm 9 mps 739 mmHg 59%
    06:00 +2°C° 0 mm 10 mps 740 mmHg 56%
    07:00 +2°C° 0 mm 10 mps 740 mmHg 55%
    08:00 +2°C° 0 mm 11 mps 740 mmHg 54%
    09:00 +3°C° 0 mm 11 mps 741 mmHg 53%
    10:00 +3°C° 0.1 mm 12 mps 741 mmHg 54%
    11:00 +3°C° 0.1 mm 12 mps 741 mmHg 55%
    12:00 +4°C° 0.1 mm 12 mps 741 mmHg 56%
    13:00 +4°C° 0.1 mm 11 mps 741 mmHg 58%
    14:00 +3°C° 0.1 mm 10 mps 741 mmHg 61%
    15:00 +3°C° 0.1 mm 10 mps 741 mmHg 63%
    16:00 +3°C° 0.2 mm 9 mps 741 mmHg 64%
    17:00 +3°C° 0.2 mm 9 mps 741 mmHg 66%
    18:00 +2°C° 0.2 mm 9 mps 741 mmHg 67%
    19:00 +2°C° 0.1 mm 8 mps 741 mmHg 66%
    20:00 +3°C° 0.1 mm 7 mps 742 mmHg 65%
    21:00 +3°C° 0.1 mm 5 mps 742 mmHg 64%
    22:00 +4°C° 0.1 mm 4 mps 742 mmHg 65%
    23:00 +4°C° 0.1 mm 3 mps 742 mmHg 66%

    Day after tomorrow, 26 March, Tuesday

    Time Temperature Precipitation Wind Pressure Humidity
    00:00 +4°C° 0.1 mm 3 mps 742 mmHg 67%
    01:00 +5°C° 0 mm 2 mps 742 mmHg 68%
    02:00 +5°C° 0 mm 2 mps 742 mmHg 70%
    03:00 +5°C° 0 mm 2 mps 742 mmHg 71%
    04:00 +5°C° 0 mm 2 mps 742 mmHg 73%
    05:00 +5°C° 0 mm 2 mps 742 mmHg 74%
    06:00 +4°C° 0 mm 2 mps 742 mmHg 76%
    07:00 +5°C° 0 mm 2 mps 742 mmHg 71%
    08:00 +6°C° 0 mm 2 mps 743 mmHg 66%
    09:00 +7°C° 0 mm 2 mps 743 mmHg 61%
    10:00 +8°C° 0 mm 2 mps 743 mmHg 59%
    11:00 +8°C° 0 mm 2 mps 743 mmHg 56%
    12:00 +9°C° 0 mm 2 mps 742 mmHg 53%
    13:00 +9°C° 0 mm 2 mps 742 mmHg 52%
    14:00 +10°C° 0 mm 3 mps 742 mmHg 52%
    15:00 +10°C° 0 mm 4 mps 741 mmHg 51%
    16:00 +10°C° 0 mm 3 mps 741 mmHg 54%
    17:00 +9°C° 0 mm 3 mps 741 mmHg 57%
    18:00 +8°C° 0 mm 3 mps 741 mmHg 60%
    19:00 +8°C° 0 mm 3 mps 741 mmHg 62%
    20:00 +8°C° 0 mm 2 mps 741 mmHg 63%
    21:00 +8°C° 0 mm 2 mps 741 mmHg 65%
    22:00 +7°C° 0 mm 3 mps 740 mmHg 67%
    23:00 +7°C° 0 mm 3 mps 740 mmHg 69%

    27 March, Wednesday

    Time Temperature Precipitation Wind Pressure Humidity
    00:00 +6°C° 0 mm 4 mps 740 mmHg 72%
    01:00 +6°C° 0 mm 4 mps 739 mmHg 74%
    02:00 +6°C° 0 mm 4 mps 739 mmHg 76%
    03:00 +5°C° 0 mm 4 mps 738 mmHg 77%
    04:00 +5°C° 0 mm 5 mps 738 mmHg 78%
    05:00 +5°C° 0 mm 5 mps 738 mmHg 78%
    06:00 +5°C° 0 mm 5 mps 738 mmHg 78%
    07:00 +6°C° 0 mm 5 mps 738 mmHg 74%
    08:00 +7°C° 0 mm 5 mps 739 mmHg 69%
    09:00 +8°C° 0 mm 6 mps 739 mmHg 64%
    10:00 +9°C° 0 mm 5 mps 739 mmHg 61%
    11:00 +11°C° 0 mm 4 mps 739 mmHg 57%
    12:00 +12°C° 0 mm 3 mps 738 mmHg 54%
    13:00 +13°C° 0 mm 2 mps 738 mmHg 53%
    14:00 +14°C° 0 mm 2 mps 738 mmHg 52%
    15:00 +14°C° 0 mm 2 mps 738 mmHg 52%
    16:00 +13°C° 0 mm 2 mps 739 mmHg 57%
    17:00 +13°C° 0 mm 2 mps 739 mmHg 62%
    18:00 +12°C° 0 mm 2 mps 739 mmHg 67%
    19:00 +10°C° 0 mm 2 mps 740 mmHg 71%
    20:00 +11°C° 0 mm 1 mps 740 mmHg 75%
    21:00 +10°C° 0 mm 1 mps 740 mmHg 79%
    22:00 +10°C° 0 mm 1 mps 740 mmHg 79%
    23:00 +10°C° 0 mm 1 mps 740 mmHg 80%

    28 March, Thursday

    Time Temperature Precipitation Wind Pressure Humidity
    00:00 +10°C° 0 mm 1 mps 740 mmHg 81%
    01:00 +10°C° 0 mm 1 mps 741 mmHg 81%
    02:00 +10°C° 0 mm 1 mps 741 mmHg 81%
    03:00 +9°C° 0 mm 1 mps 741 mmHg 81%
    04:00 +9°C° 0 mm 0 mps 741 mmHg 80%
    05:00 +9°C° 0 mm 0 mps 742 mmHg 78%
    06:00 +9°C° 0 mm 0 mps 742 mmHg 76%
    07:00 +11°C° 0 mm 1 mps 742 mmHg 68%
    08:00 +13°C° 0 mm 1 mps 743 mmHg 59%
    09:00 +14°C° 0 mm 2 mps 743 mmHg 50%
    10:00 +13°C° 0 mm 3 mps 744 mmHg 49%
    11:00 +14°C° 0 mm 5 mps 744 mmHg 47%
    12:00 +14°C° 0 mm 6 mps 744 mmHg 45%
    13:00 +12°C° 0 mm 7 mps 744 mmHg 51%
    14:00 +11°C° 0 mm 8 mps 744 mmHg 56%
    15:00 +9°C° 0 mm 10 mps 743 mmHg 62%
    16:00 +8°C° 0 mm 10 mps 744 mmHg 62%
    17:00 +7°C° 0 mm 10 mps 744 mmHg 62%
    18:00 +6°C° 0 mm 11 mps 744 mmHg 63%
    19:00 +6°C° 0.1 mm 11 mps 745 mmHg 63%
    20:00 +4°C° 0.1 mm 11 mps 745 mmHg 64%
    21:00 +4°C° 0.1 mm 11 mps 746 mmHg 64%
    22:00 +5°C° 0.1 mm 10 mps 745 mmHg 64%
    23:00 +3°C° 0.1 mm 10 mps 745 mmHg 63%

    29 March, Friday

    Time Temperature Precipitation Wind Pressure Humidity
    00:00 +3°C° 0.1 mm 10 mps 745 mmHg 63%
    01:00 +3°C° 0.1 mm 10 mps 745 mmHg 64%
    02:00 +3°C° 0.1 mm 10 mps 745 mmHg 64%
    03:00 +3°C° 0.1 mm 10 mps 745 mmHg 65%
    04:00 +2°C° 0.1 mm 10 mps 746 mmHg 65%
    05:00 +2°C° 0.1 mm 10 mps 746 mmHg 65%
    06:00 +2°C° 0.1 mm 10 mps 746 mmHg 65%
    07:00 +2°C° 0.2 mm 10 mps 746 mmHg 67%
    08:00 +2°C° 0.2 mm 10 mps 747 mmHg 70%
    09:00 +2°C° 0.2 mm 9 mps 747 mmHg 72%
    10:00 +3°C° 0.3 mm 9 mps 747 mmHg 73%
    11:00 +3°C° 0.3 mm 9 mps 747 mmHg 73%
    12:00 +3°C° 0.3 mm 9 mps 747 mmHg 73%
    13:00 +3°C° 0 mm 9 mps 746 mmHg 73%
    14:00 +3°C° 0 mm 9 mps 746 mmHg 72%
    15:00 +3°C° 0 mm 9 mps 746 mmHg 71%
    16:00 +4°C° 0 mm 8 mps 746 mmHg 72%
    17:00 +2°C° 0 mm 8 mps 746 mmHg 73%
    18:00 +2°C° 0 mm 8 mps 747 mmHg 74%
    19:00 +2°C° 0 mm 8 mps 747 mmHg 74%
    20:00 +3°C° 0 mm 7 mps 747 mmHg 75%
    21:00 +3°C° 0 mm 7 mps 747 mmHg 75%
    22:00 +2°C° 0 mm 6 mps 747 mmHg 76%
    23:00 +2°C° 0 mm 5 mps 747 mmHg 77%
    Show more